This is the latest recevied weather packets stored in our database for station/object NC4J. If no packets are shown the sender has not sent any weather packets the latest 10 day(s).
| Time | Temp. | Humidity | Pressure | Rain* | Wind** | Luminosity | Snow |
|---|---|---|---|---|---|---|---|
| 1777702658 | 12.22° C | 66% | 1013.5 hPa | 0 mm | - | 0 W/m² | - |
| 1777702355 | 12.22° C | 65% | 1013.5 hPa | 0 mm | - | 0 W/m² | - |
| 1777702050 | 12.22° C | 65% | 1013.7 hPa | 0 mm | - | 0 W/m² | - |
| 1777701746 | 12.22° C | 65% | 1013.6 hPa | 0 mm | - | 0 W/m² | - |
| 1777701444 | 12.22° C | 63% | 1013.6 hPa | 0 mm | - | 0 W/m² | - |
| 1777701142 | 12.22° C | 64% | 1013.8 hPa | 0 mm | - | 0 W/m² | - |
| 1777700841 | 12.22° C | 65% | 1013.6 hPa | 0 mm | - | 0 W/m² | - |
| 1777700538 | 12.22° C | 64% | 1014 hPa | 0 mm | - | 0 W/m² | - |
| 1777700235 | 12.22° C | 64% | 1013.8 hPa | 0 mm | - | 0 W/m² | - |
| 1777699932 | 11.67° C | 66% | 1013.7 hPa | 0 mm | - | 0 W/m² | - |
| 1777699630 | 11.67° C | 67% | 1013.7 hPa | 0 mm | - | 0 W/m² | - |
| 1777699329 | 11.11° C | 68% | 1013.9 hPa | 0 mm | - | 0 W/m² | - |
| 1777699026 | 11.11° C | 71% | 1013.9 hPa | 0 mm | - | 0 W/m² | - |
| 1777698724 | 10.56° C | 72% | 1013.9 hPa | 0 mm | - | 0 W/m² | - |
| 1777698420 | 10.56° C | 75% | 1014 hPa | 0 mm | - | 0 W/m² | - |
| 1777698116 | 10° C | 77% | 1014 hPa | 0 mm | - | 0 W/m² | - |
| 1777697813 | 10.56° C | 78% | 1014 hPa | 0 mm | - | 0 W/m² | - |
| 1777697511 | 10° C | 80% | 1014 hPa | 0 mm | - | 0 W/m² | - |
| 1777697207 | 10.56° C | 80% | 1013.9 hPa | 0 mm | - | 0 W/m² | - |
| 1777696903 | 10.56° C | 78% | 1013.9 hPa | 0 mm | - | 0 W/m² | - |
| 1777696602 | 10.56° C | 79% | 1013.8 hPa | 0 mm | - | 0 W/m² | - |
| 1777696299 | 10.56° C | 79% | 1013.7 hPa | 0 mm | - | 0 W/m² | - |
| 1777695998 | 10.56° C | 76% | 1013.8 hPa | 0 mm | - | 0 W/m² | - |
| 1777695695 | 10.56° C | 77% | 1013.7 hPa | 0 mm | - | 0 W/m² | - |
| 1777695393 | 10.56° C | 77% | 1013.9 hPa | 0 mm | - | 0 W/m² | - |
* Rain latest hour (hover to see other rain measurements)
** Current wind speed in m/s (hover to see current wind gust speed)